OAL063 RJFG-RJBD

Flight info

Callsign OAL063
Flight time 1h 37m
Altitude 11000
Route MIYAZAKI SHIMIZU MUROTO NANKI
Aircraft C208/L-SDFGR/C

Departure

Time 2026-04-30 08:37
Airport New Tanegashima Airport (RJFG)

Arrival

Time 2026-04-30 10:14
Airport Nanki Shirahama Airport (RJBD)
Time Latitude Longitude Altitude Speed Heading
2026-04-30 08:27 30.60836 130.99168 779 ft 0 kts 33°
2026-04-30 08:33 30.60840 130.99168 779 ft 2 kts 340°
2026-04-30 08:33 30.60828 130.99121 778 ft 0 kts 251°
2026-04-30 08:33 30.60799 130.99069 776 ft 15 kts 223°
2026-04-30 08:34 30.60690 130.98986 775 ft 16 kts 214°
2026-04-30 08:34 30.60680 130.98862 775 ft 22 kts 302°
2026-04-30 08:34 30.60768 130.98707 778 ft 24 kts 303°
2026-04-30 08:34 30.60862 130.98541 775 ft 26 kts 302°
2026-04-30 08:35 30.60949 130.98382 775 ft 23 kts 304°
2026-04-30 08:35 30.61012 130.98307 773 ft 9 kts 276°
2026-04-30 08:35 30.60987 130.98315 773 ft 0 kts 123°
2026-04-30 08:36 30.60927 130.98423 775 ft 42 kts 123°
2026-04-30 08:36 30.60663 130.98883 793 ft 89 kts 122°
2026-04-30 08:36 30.60287 130.99556 966 ft 107 kts 115°
2026-04-30 08:36 30.59975 131.00348 1274 ft 109 kts 117°
2026-04-30 08:37 30.59611 131.01147 1565 ft 114 kts 117°
2026-04-30 08:37 30.59273 131.02007 1860 ft 124 kts 109°
2026-04-30 08:37 30.59463 131.02995 2124 ft 136 kts 48°
2026-04-30 08:37 30.60278 131.03430 2401 ft 136 kts
2026-04-30 08:38 30.61186 131.03697 2658 ft 138 kts 10°
2026-04-30 08:38 30.62131 131.03989 2922 ft 142 kts
2026-04-30 08:38 30.63097 131.04221 3178 ft 142 kts
2026-04-30 08:38 30.64092 131.04403 3426 ft 146 kts
2026-04-30 08:39 30.65100 131.04593 3678 ft 148 kts
2026-04-30 08:39 30.66126 131.04794 3921 ft 150 kts
2026-04-30 08:39 30.67153 131.05020 4170 ft 151 kts
2026-04-30 08:39 30.68185 131.05262 4422 ft 151 kts
2026-04-30 08:40 30.69222 131.05505 4672 ft 153 kts
2026-04-30 08:40 30.70274 131.05748 4915 ft 154 kts
2026-04-30 08:40 30.71318 131.05990 5152 ft 155 kts
2026-04-30 08:40 30.72369 131.06238 5395 ft 154 kts
2026-04-30 08:41 30.73419 131.06509 5640 ft 155 kts
2026-04-30 08:41 30.74471 131.06792 5888 ft 156 kts
2026-04-30 08:41 30.75532 131.07085 6139 ft 157 kts
2026-04-30 08:41 30.76599 131.07387 6379 ft 159 kts
2026-04-30 08:42 30.77682 131.07694 6615 ft 161 kts
2026-04-30 08:42 30.78765 131.08005 6843 ft 158 kts
2026-04-30 08:42 30.79826 131.08318 7079 ft 157 kts
2026-04-30 08:42 30.80885 131.08636 7314 ft 157 kts
2026-04-30 08:43 30.81941 131.08959 7560 ft 157 kts
2026-04-30 08:43 30.82996 131.09288 7793 ft 157 kts
2026-04-30 08:43 30.84048 131.09618 8034 ft 157 kts
2026-04-30 08:43 30.85102 131.09952 8276 ft 157 kts
2026-04-30 08:44 30.86141 131.10286 8519 ft 157 kts
2026-04-30 08:44 30.87194 131.10626 8766 ft 157 kts
2026-04-30 08:44 30.88261 131.10974 9018 ft 157 kts
2026-04-30 08:44 30.89297 131.11314 9268 ft 157 kts
2026-04-30 08:45 30.90345 131.11662 9519 ft 157 kts
2026-04-30 08:45 30.91393 131.12014 9769 ft 156 kts
2026-04-30 08:45 30.92438 131.12369 9999 ft 156 kts
2026-04-30 08:45 30.93480 131.12725 10223 ft 156 kts
2026-04-30 08:46 30.94520 131.13083 10459 ft 156 kts
2026-04-30 08:46 30.95554 131.13441 10689 ft 155 kts
2026-04-30 08:46 30.96583 131.13801 10923 ft 154 kts
2026-04-30 08:46 30.97639 131.14162 11001 ft 166 kts
2026-04-30 08:47 30.98795 131.14533 11008 ft 179 kts
2026-04-30 08:47 31.00037 131.14909 11013 ft 189 kts
2026-04-30 08:47 31.01339 131.15288 11009 ft 196 kts
2026-04-30 08:47 31.02683 131.15667 11011 ft 201 kts
2026-04-30 08:48 31.04057 131.16047 11013 ft 204 kts
2026-04-30 08:48 31.05434 131.16422 11007 ft 207 kts
2026-04-30 08:48 31.06839 131.16801 11010 ft 208 kts
2026-04-30 08:48 31.08250 131.17178 11014 ft 208 kts
2026-04-30 08:49 31.09664 131.17554 11013 ft 209 kts
2026-04-30 08:49 31.11083 131.17929 11012 ft 209 kts
2026-04-30 08:49 31.12493 131.18012 11010 ft 198 kts 342°
2026-04-30 08:49 31.13876 131.17856 11011 ft 203 kts 349°
2026-04-30 08:50 31.15311 131.18104 11007 ft 214 kts
2026-04-30 08:50 31.16734 131.18652 11012 ft 216 kts 11°
2026-04-30 08:50 31.18160 131.19195 11012 ft 215 kts
2026-04-30 08:50 31.19595 131.19694 11012 ft 215 kts
2026-04-30 08:51 31.21030 131.20189 11013 ft 215 kts
2026-04-30 08:51 31.22464 131.20691 11014 ft 215 kts
2026-04-30 08:51 31.23899 131.21194 11014 ft 215 kts
2026-04-30 08:51 31.25333 131.21696 11013 ft 215 kts
2026-04-30 08:52 31.26769 131.22198 11015 ft 215 kts
2026-04-30 08:52 31.28204 131.22701 11016 ft 215 kts
2026-04-30 08:52 31.29638 131.23203 11014 ft 215 kts
2026-04-30 08:52 31.31075 131.23707 11016 ft 215 kts
2026-04-30 08:53 31.32508 131.24209 11014 ft 215 kts
2026-04-30 08:53 31.33925 131.24706 11016 ft 215 kts
2026-04-30 08:53 31.35358 131.25209 11017 ft 215 kts
2026-04-30 08:53 31.36789 131.25711 11019 ft 215 kts
2026-04-30 08:54 31.38219 131.26213 11020 ft 215 kts
2026-04-30 08:54 31.39652 131.26716 11013 ft 215 kts
2026-04-30 08:54 31.41087 131.27219 11015 ft 215 kts
2026-04-30 08:54 31.42520 131.27723 11016 ft 215 kts
2026-04-30 08:55 31.43951 131.28225 11016 ft 215 kts
2026-04-30 08:55 31.45386 131.28730 11019 ft 215 kts
2026-04-30 08:55 31.46816 131.29233 11019 ft 215 kts
2026-04-30 08:55 31.48251 131.29738 11018 ft 215 kts
2026-04-30 08:56 31.49199 131.30072 11019 ft 215 kts
2026-04-30 08:56 31.51102 131.30740 11013 ft 215 kts 10°
2026-04-30 08:56 31.52531 131.31247 11018 ft 214 kts
2026-04-30 08:56 31.53959 131.31749 11024 ft 214 kts
2026-04-30 08:57 31.55385 131.32251 11023 ft 214 kts
2026-04-30 08:57 31.56349 131.32590 11018 ft 214 kts
2026-04-30 08:57 31.57774 131.33092 11019 ft 214 kts
2026-04-30 08:57 31.59199 131.33596 11017 ft 214 kts
2026-04-30 08:58 31.60606 131.34092 11018 ft 214 kts
2026-04-30 08:58 31.62037 131.34594 11019 ft 215 kts
2026-04-30 08:58 31.63475 131.35102 11017 ft 216 kts
2026-04-30 08:58 31.64909 131.35609 11017 ft 215 kts
2026-04-30 08:59 31.66342 131.36116 11019 ft 215 kts
2026-04-30 08:59 31.67771 131.36622 11009 ft 214 kts
2026-04-30 08:59 31.69217 131.37133 11010 ft 214 kts
2026-04-30 08:59 31.70622 131.37631 11012 ft 214 kts
2026-04-30 09:00 31.72050 131.38133 11015 ft 214 kts
2026-04-30 09:00 31.73487 131.38639 11011 ft 216 kts
2026-04-30 09:00 31.74926 131.39151 11010 ft 217 kts
2026-04-30 09:00 31.76378 131.39666 11007 ft 218 kts
2026-04-30 09:01 31.77823 131.40179 10999 ft 216 kts
2026-04-30 09:01 31.79255 131.40686 11000 ft 215 kts
2026-04-30 09:01 31.80689 131.41191 11000 ft 216 kts
2026-04-30 09:01 31.82122 131.41701 10997 ft 214 kts
2026-04-30 09:02 31.84976 131.42713 11004 ft 215 kts
2026-04-30 09:02 31.86409 131.43221 11003 ft 215 kts
2026-04-30 09:02 31.87769 131.44004 10989 ft 223 kts 33°
2026-04-30 09:03 31.88821 131.45355 10990 ft 226 kts 54°
2026-04-30 09:03 31.89675 131.46882 10998 ft 226 kts 55°
2026-04-30 09:03 31.90555 131.48415 10993 ft 226 kts 54°
2026-04-30 09:03 31.91437 131.49948 10996 ft 226 kts 54°
2026-04-30 09:04 31.92320 131.51485 10993 ft 226 kts 54°
2026-04-30 09:04 31.93200 131.53023 10996 ft 226 kts 54°
2026-04-30 09:04 31.94077 131.54556 10998 ft 226 kts 54°
2026-04-30 09:04 31.94954 131.56086 11003 ft 225 kts 54°
2026-04-30 09:05 31.95828 131.57614 11004 ft 225 kts 55°
2026-04-30 09:05 31.96699 131.59140 11004 ft 224 kts 54°
2026-04-30 09:05 31.97571 131.60663 11001 ft 224 kts 54°
2026-04-30 09:05 31.98440 131.62183 11005 ft 224 kts 54°
2026-04-30 09:06 31.99307 131.63700 11007 ft 223 kts 54°
2026-04-30 09:06 32.00174 131.65218 11009 ft 223 kts 54°
2026-04-30 09:06 32.01038 131.66730 11008 ft 222 kts 54°
2026-04-30 09:06 32.01900 131.68244 11011 ft 222 kts 54°
2026-04-30 09:07 32.02762 131.69753 11012 ft 222 kts 54°
2026-04-30 09:07 32.03622 131.71262 11013 ft 221 kts 55°
2026-04-30 09:07 32.04482 131.72770 11015 ft 221 kts 55°
2026-04-30 09:07 32.05340 131.74276 11015 ft 221 kts 55°
2026-04-30 09:08 32.06199 131.75784 11016 ft 221 kts 55°
2026-04-30 09:08 32.07046 131.77271 11015 ft 221 kts 55°
2026-04-30 09:08 32.07902 131.78777 11012 ft 221 kts 55°
2026-04-30 09:08 32.08759 131.80282 11016 ft 221 kts 55°
2026-04-30 09:09 32.09628 131.81809 11015 ft 222 kts 55°
2026-04-30 09:09 32.10476 131.83301 11012 ft 221 kts 55°
2026-04-30 09:09 32.11334 131.84811 11009 ft 221 kts 55°
2026-04-30 09:09 32.12189 131.86318 11007 ft 221 kts 55°
2026-04-30 09:10 32.13044 131.87823 11013 ft 221 kts 55°
2026-04-30 09:10 32.13897 131.89327 11014 ft 221 kts 55°
2026-04-30 09:10 32.14752 131.90833 11015 ft 220 kts 55°
2026-04-30 09:10 32.15603 131.92334 11012 ft 220 kts 55°
2026-04-30 09:11 32.16457 131.93841 11014 ft 221 kts 55°
2026-04-30 09:11 32.17311 131.95346 11014 ft 221 kts 55°
2026-04-30 09:11 32.18163 131.96851 11015 ft 221 kts 55°
2026-04-30 09:11 32.19016 131.98357 11013 ft 221 kts 55°
2026-04-30 09:12 32.19871 131.99869 11014 ft 221 kts 55°
2026-04-30 09:12 32.20725 132.01378 11015 ft 221 kts 55°
2026-04-30 09:12 32.21579 132.02888 11014 ft 221 kts 56°
2026-04-30 09:12 32.22431 132.04395 11019 ft 221 kts 56°
2026-04-30 09:13 32.23285 132.05906 11018 ft 221 kts 56°
2026-04-30 09:13 32.24141 132.07421 11017 ft 221 kts 56°
2026-04-30 09:13 32.24994 132.08933 11017 ft 221 kts 56°
2026-04-30 09:13 32.25848 132.10445 11015 ft 221 kts 56°
2026-04-30 09:14 32.26703 132.11961 11023 ft 222 kts 56°
2026-04-30 09:14 32.27558 132.13477 11017 ft 222 kts 56°
2026-04-30 09:14 32.28404 132.14977 11016 ft 222 kts 56°
2026-04-30 09:14 32.29258 132.16493 11017 ft 221 kts 56°
2026-04-30 09:15 32.30112 132.18009 11016 ft 221 kts 56°
2026-04-30 09:15 32.30963 132.19521 11016 ft 221 kts 56°
2026-04-30 09:15 32.31817 132.21037 11019 ft 221 kts 56°
2026-04-30 09:15 32.32667 132.22549 11017 ft 221 kts 56°
2026-04-30 09:16 32.33524 132.24072 11019 ft 221 kts 56°
2026-04-30 09:16 32.34376 132.25589 11018 ft 222 kts 56°
2026-04-30 09:16 32.35231 132.27109 11016 ft 222 kts 56°
2026-04-30 09:16 32.36084 132.28628 11016 ft 222 kts 56°
2026-04-30 09:17 32.36937 132.30147 11016 ft 222 kts 56°
2026-04-30 09:17 32.37778 132.31646 11015 ft 221 kts 56°
2026-04-30 09:17 32.38629 132.33163 11014 ft 221 kts 56°
2026-04-30 09:17 32.39479 132.34678 11014 ft 221 kts 56°
2026-04-30 09:18 32.40327 132.36191 11017 ft 220 kts 56°
2026-04-30 09:18 32.41175 132.37704 11018 ft 220 kts 56°
2026-04-30 09:18 32.42021 132.39216 11015 ft 221 kts 56°
2026-04-30 09:18 32.42869 132.40729 11014 ft 221 kts 56°
2026-04-30 09:19 32.43717 132.42244 11011 ft 221 kts 56°
2026-04-30 09:19 32.44565 132.43761 11020 ft 221 kts 56°
2026-04-30 09:19 32.45412 132.45274 11018 ft 221 kts 56°
2026-04-30 09:19 32.46259 132.46790 11020 ft 220 kts 56°
2026-04-30 09:20 32.47105 132.48303 11017 ft 220 kts 56°
2026-04-30 09:20 32.47949 132.49816 11017 ft 220 kts 56°
2026-04-30 09:20 32.48796 132.51332 11018 ft 221 kts 56°
2026-04-30 09:20 32.49644 132.52850 11019 ft 221 kts 56°
2026-04-30 09:21 32.50494 132.54374 11020 ft 221 kts 56°
2026-04-30 09:21 32.51340 132.55891 11022 ft 221 kts 56°
2026-04-30 09:21 32.52189 132.57415 11021 ft 222 kts 56°
2026-04-30 09:21 32.53029 132.58921 11024 ft 222 kts 57°
2026-04-30 09:22 32.53880 132.60449 11017 ft 222 kts 57°
2026-04-30 09:22 32.54730 132.61977 11017 ft 222 kts 57°
2026-04-30 09:22 32.55577 132.63498 11022 ft 221 kts 57°
2026-04-30 09:22 32.56423 132.65019 11021 ft 220 kts 57°
2026-04-30 09:23 32.57264 132.66533 11019 ft 220 kts 57°
2026-04-30 09:23 32.58105 132.68045 11017 ft 219 kts 57°
2026-04-30 09:23 32.58942 132.69552 11019 ft 219 kts 57°
2026-04-30 09:23 32.59777 132.71056 11022 ft 218 kts 57°
2026-04-30 09:24 32.60614 132.72562 11017 ft 218 kts 57°
2026-04-30 09:24 32.61449 132.74068 11013 ft 218 kts 57°
2026-04-30 09:24 32.62283 132.75571 11024 ft 218 kts 57°
2026-04-30 09:24 32.63109 132.77061 11018 ft 218 kts 57°
2026-04-30 09:25 32.63941 132.78562 11023 ft 218 kts 57°
2026-04-30 09:25 32.64774 132.80066 11023 ft 218 kts 57°
2026-04-30 09:25 32.65605 132.81566 11023 ft 218 kts 57°
2026-04-30 09:25 32.66440 132.83069 11023 ft 218 kts 57°
2026-04-30 09:26 32.67270 132.84574 11021 ft 218 kts 57°
2026-04-30 09:26 32.68101 132.86078 11029 ft 218 kts 57°
2026-04-30 09:26 32.68931 132.87578 11027 ft 217 kts 57°
2026-04-30 09:26 32.69761 132.89079 11029 ft 217 kts 57°
2026-04-30 09:27 32.70580 132.90561 11029 ft 217 kts 57°
2026-04-30 09:27 32.71412 132.92067 11032 ft 217 kts 57°
2026-04-30 09:27 32.72242 132.93570 11036 ft 218 kts 57°
2026-04-30 09:27 32.73072 132.95075 11033 ft 218 kts 57°
2026-04-30 09:28 32.73906 132.96586 11038 ft 219 kts 57°
2026-04-30 09:28 32.74748 132.98113 11039 ft 221 kts 57°
2026-04-30 09:28 32.75587 132.99640 11047 ft 221 kts 58°
2026-04-30 09:28 32.76316 133.01199 11045 ft 216 kts 63°
2026-04-30 09:29 32.77036 133.02767 11045 ft 216 kts 62°
2026-04-30 09:29 32.77767 133.04333 11042 ft 217 kts 62°
2026-04-30 09:29 32.78501 133.05904 11041 ft 217 kts 62°
2026-04-30 09:29 32.79229 133.07478 11044 ft 217 kts 62°
2026-04-30 09:30 32.79960 133.09056 11047 ft 217 kts 62°
2026-04-30 09:30 32.80690 133.10631 11045 ft 218 kts 62°
2026-04-30 09:30 32.81420 133.12210 11051 ft 218 kts 63°
2026-04-30 09:30 32.82152 133.13790 11052 ft 218 kts 63°
2026-04-30 09:31 32.82887 133.15377 11051 ft 219 kts 63°
2026-04-30 09:31 32.83611 133.16944 11050 ft 219 kts 63°
2026-04-30 09:31 32.84345 133.18533 11053 ft 219 kts 63°
2026-04-30 09:31 32.85079 133.20122 11059 ft 219 kts 63°
2026-04-30 09:32 32.85813 133.21710 11058 ft 219 kts 63°
2026-04-30 09:32 32.86548 133.23302 11054 ft 220 kts 63°
2026-04-30 09:32 32.87283 133.24894 11057 ft 220 kts 63°
2026-04-30 09:32 32.88021 133.26494 11055 ft 220 kts 63°
2026-04-30 09:33 32.88760 133.28096 11057 ft 221 kts 63°
2026-04-30 09:33 32.89498 133.29699 11058 ft 221 kts 63°
2026-04-30 09:33 32.90237 133.31302 11054 ft 221 kts 63°
2026-04-30 09:33 32.90976 133.32906 11062 ft 221 kts 63°
2026-04-30 09:34 32.91714 133.34512 11056 ft 221 kts 63°
2026-04-30 09:34 32.92454 133.36120 11060 ft 222 kts 63°
2026-04-30 09:34 32.93196 133.37729 11063 ft 222 kts 63°
2026-04-30 09:34 32.93935 133.39338 11056 ft 222 kts 63°
2026-04-30 09:35 32.94664 133.40927 11059 ft 222 kts 63°
2026-04-30 09:35 32.95405 133.42540 11062 ft 222 kts 63°
2026-04-30 09:35 32.96146 133.44155 11062 ft 222 kts 63°
2026-04-30 09:35 32.96887 133.45772 11060 ft 222 kts 63°
2026-04-30 09:36 32.97630 133.47390 11067 ft 223 kts 63°
2026-04-30 09:36 32.98376 133.49009 11071 ft 223 kts 63°
2026-04-30 09:36 32.99116 133.50632 11069 ft 223 kts 64°
2026-04-30 09:36 32.99859 133.52249 11074 ft 223 kts 63°
2026-04-30 09:37 33.00594 133.53850 11073 ft 223 kts 63°
2026-04-30 09:37 33.01347 133.55496 11070 ft 223 kts 64°
2026-04-30 09:37 33.02077 133.57101 11075 ft 223 kts 64°
2026-04-30 09:37 33.02821 133.58726 11072 ft 223 kts 64°
2026-04-30 09:38 33.03565 133.60352 11070 ft 223 kts 64°
2026-04-30 09:38 33.04306 133.61971 11075 ft 223 kts 64°
2026-04-30 09:38 33.05046 133.63594 11073 ft 222 kts 64°
2026-04-30 09:38 33.05783 133.65216 11076 ft 223 kts 64°
2026-04-30 09:39 33.06523 133.66840 11068 ft 223 kts 64°
2026-04-30 09:39 33.07265 133.68463 11075 ft 222 kts 64°
2026-04-30 09:39 33.08005 133.70084 11072 ft 222 kts 64°
2026-04-30 09:39 33.08746 133.71707 11070 ft 222 kts 64°
2026-04-30 09:40 33.09486 133.73336 11076 ft 223 kts 64°
2026-04-30 09:40 33.10225 133.74960 11077 ft 223 kts 64°
2026-04-30 09:40 33.10966 133.76594 11077 ft 223 kts 64°
2026-04-30 09:40 33.11707 133.78219 11074 ft 223 kts 64°
2026-04-30 09:41 33.12436 133.79829 11074 ft 223 kts 64°
2026-04-30 09:41 33.13177 133.81457 11077 ft 223 kts 64°
2026-04-30 09:41 33.13919 133.83087 11081 ft 223 kts 64°
2026-04-30 09:41 33.14655 133.84713 11083 ft 223 kts 64°
2026-04-30 09:42 33.15394 133.86345 11081 ft 223 kts 64°
2026-04-30 09:42 33.16133 133.87975 11081 ft 223 kts 64°
2026-04-30 09:42 33.16868 133.89600 11082 ft 222 kts 63°
2026-04-30 09:42 33.17606 133.91223 11086 ft 222 kts 64°
2026-04-30 09:43 33.18332 133.92822 11082 ft 222 kts 64°
2026-04-30 09:43 33.19069 133.94449 11083 ft 222 kts 64°
2026-04-30 09:43 33.19803 133.96074 11084 ft 222 kts 64°
2026-04-30 09:43 33.20539 133.97699 11083 ft 222 kts 64°
2026-04-30 09:44 33.21270 133.99322 11088 ft 222 kts 64°
2026-04-30 09:44 33.22005 134.00943 11088 ft 222 kts 63°
2026-04-30 09:44 33.22736 134.02567 11092 ft 222 kts 64°
2026-04-30 09:44 33.23219 134.03639 11092 ft 222 kts 64°
2026-04-30 09:45 33.23951 134.05263 11089 ft 221 kts 64°
2026-04-30 09:45 33.24681 134.06878 11090 ft 221 kts 64°
2026-04-30 09:45 33.25410 134.08497 11089 ft 221 kts 64°
2026-04-30 09:45 33.26138 134.10116 11091 ft 221 kts 64°
2026-04-30 09:46 33.26866 134.11733 11095 ft 221 kts 63°
2026-04-30 09:46 33.27597 134.13350 11095 ft 221 kts 64°
2026-04-30 09:46 33.28318 134.14969 11096 ft 220 kts 66°
2026-04-30 09:46 33.28878 134.16664 11095 ft 219 kts 73°
2026-04-30 09:47 33.29410 134.18376 11099 ft 219 kts 72°
2026-04-30 09:47 33.30132 134.20633 11105 ft 219 kts 72°
2026-04-30 09:47 33.30500 134.21783 11101 ft 219 kts 72°
2026-04-30 09:47 33.31034 134.23462 11102 ft 219 kts 72°
2026-04-30 09:48 33.31574 134.25164 11100 ft 219 kts 72°
2026-04-30 09:48 33.32115 134.26867 11107 ft 219 kts 72°
2026-04-30 09:48 33.32654 134.28570 11105 ft 219 kts 73°
2026-04-30 09:48 33.33194 134.30267 11107 ft 218 kts 72°
2026-04-30 09:49 33.33733 134.31967 11107 ft 218 kts 73°
2026-04-30 09:49 33.34270 134.33669 11106 ft 218 kts 72°
2026-04-30 09:49 33.34810 134.35363 11107 ft 218 kts 72°
2026-04-30 09:49 33.35346 134.37061 11111 ft 218 kts 73°
2026-04-30 09:50 33.35879 134.38756 11107 ft 218 kts 73°
2026-04-30 09:50 33.36409 134.40430 11109 ft 218 kts 72°
2026-04-30 09:50 33.36946 134.42123 11113 ft 218 kts 72°
2026-04-30 09:50 33.37482 134.43820 11115 ft 218 kts 73°
2026-04-30 09:51 33.38024 134.45536 10979 ft 223 kts 72°
2026-04-30 09:51 33.38573 134.47272 10790 ft 223 kts 73°
2026-04-30 09:51 33.39120 134.49005 10600 ft 222 kts 73°
2026-04-30 09:51 33.39667 134.50738 10413 ft 222 kts 73°
2026-04-30 09:52 33.40213 134.52461 10228 ft 222 kts 71°
2026-04-30 09:52 33.41150 134.53923 10028 ft 224 kts 36°
2026-04-30 09:52 33.42544 134.54535 9821 ft 208 kts
2026-04-30 09:52 33.43846 134.55204 9584 ft 205 kts 43°
2026-04-30 09:53 33.44605 134.56584 9375 ft 196 kts 71°
2026-04-30 09:53 33.45143 134.58068 9173 ft 193 kts 72°
2026-04-30 09:53 33.45674 134.59511 8979 ft 191 kts 71°
2026-04-30 09:53 33.46210 134.60961 8769 ft 190 kts 72°
2026-04-30 09:54 33.46744 134.62398 8567 ft 188 kts 72°
2026-04-30 09:54 33.47280 134.63822 8368 ft 187 kts 72°
2026-04-30 09:54 33.47815 134.65234 8162 ft 186 kts 72°
2026-04-30 09:54 33.48353 134.66636 7970 ft 185 kts 71°
2026-04-30 09:55 33.48884 134.68030 7777 ft 184 kts 72°
2026-04-30 09:55 33.49423 134.69418 7583 ft 183 kts 73°
2026-04-30 09:55 33.49959 134.70799 7388 ft 183 kts 73°
2026-04-30 09:55 33.50506 134.72178 7201 ft 182 kts 71°
2026-04-30 09:56 33.51051 134.73538 7007 ft 180 kts 73°
2026-04-30 09:56 33.51566 134.74901 6817 ft 178 kts 74°
2026-04-30 09:56 33.52071 134.76249 6625 ft 177 kts 74°
2026-04-30 09:56 33.52580 134.77584 6434 ft 176 kts 75°
2026-04-30 09:57 33.53102 134.78913 6239 ft 176 kts 74°
2026-04-30 09:57 33.53620 134.80213 6046 ft 175 kts 74°
2026-04-30 09:57 33.54144 134.81524 5843 ft 172 kts 73°
2026-04-30 09:57 33.54656 134.82797 5644 ft 168 kts 75°
2026-04-30 09:58 33.55170 134.84064 5439 ft 165 kts 73°
2026-04-30 09:58 33.55663 134.85272 5244 ft 162 kts 74°
2026-04-30 09:58 33.56153 134.86454 5129 ft 156 kts 74°
2026-04-30 09:58 33.56637 134.87597 5031 ft 152 kts 73°
2026-04-30 09:59 33.57602 134.89816 4829 ft 148 kts 74°
2026-04-30 09:59 33.58046 134.91957 4612 ft 124 kts 115°
2026-04-30 10:00 33.57881 134.93874 4430 ft 125 kts 102°
2026-04-30 10:00 33.57850 134.94907 4325 ft 123 kts 101°
2026-04-30 10:01 33.57807 134.96938 4181 ft 120 kts 101°
2026-04-30 10:01 33.57789 134.97944 4133 ft 121 kts 100°
2026-04-30 10:01 33.57770 134.98960 4082 ft 122 kts 101°
2026-04-30 10:02 33.57732 135.01009 3981 ft 123 kts 101°
2026-04-30 10:02 33.57710 135.02036 3931 ft 123 kts 100°
2026-04-30 10:02 33.57692 135.03063 3882 ft 123 kts 100°
2026-04-30 10:02 33.57674 135.04078 3835 ft 124 kts 99°
2026-04-30 10:03 33.57656 135.05112 3786 ft 124 kts 99°
2026-04-30 10:03 33.57636 135.06150 3737 ft 124 kts 99°
2026-04-30 10:03 33.57616 135.07179 3679 ft 123 kts 100°
2026-04-30 10:03 33.57598 135.08201 3629 ft 122 kts 99°
2026-04-30 10:04 33.57580 135.09212 3578 ft 121 kts 100°
2026-04-30 10:04 33.57563 135.10217 3526 ft 120 kts 99°
2026-04-30 10:04 33.57545 135.11222 3481 ft 121 kts 99°
2026-04-30 10:04 33.57527 135.12228 3433 ft 121 kts 99°
2026-04-30 10:05 33.57507 135.13232 3386 ft 120 kts 99°
2026-04-30 10:05 33.57486 135.14236 3332 ft 120 kts 99°
2026-04-30 10:05 33.57466 135.15244 3288 ft 122 kts 99°
2026-04-30 10:05 33.57447 135.16265 3237 ft 123 kts 99°
2026-04-30 10:06 33.57427 135.17291 3182 ft 123 kts 99°
2026-04-30 10:06 33.57407 135.18319 3137 ft 123 kts 98°
2026-04-30 10:06 33.57387 135.19350 3083 ft 124 kts 98°
2026-04-30 10:06 33.57368 135.20384 3033 ft 124 kts 97°
2026-04-30 10:07 33.57349 135.21417 2982 ft 124 kts 97°
2026-04-30 10:07 33.57328 135.22442 2931 ft 122 kts 97°
2026-04-30 10:07 33.57308 135.23457 2877 ft 122 kts 96°
2026-04-30 10:07 33.57290 135.24475 2827 ft 122 kts 96°
2026-04-30 10:08 33.57270 135.25490 2775 ft 122 kts 96°
2026-04-30 10:08 33.57250 135.26494 2723 ft 122 kts 96°
2026-04-30 10:08 33.57229 135.27514 2666 ft 120 kts 96°
2026-04-30 10:08 33.57206 135.28495 2617 ft 119 kts 97°
2026-04-30 10:09 33.57182 135.29499 2569 ft 120 kts 97°
2026-04-30 10:09 33.57162 135.30489 2518 ft 121 kts 96°
2026-04-30 10:09 33.57149 135.31505 2470 ft 122 kts 96°
2026-04-30 10:09 33.57129 135.32522 2412 ft 122 kts 96°
2026-04-30 10:10 33.57104 135.33537 2363 ft 122 kts 95°
2026-04-30 10:10 33.57081 135.34555 2310 ft 123 kts 94°
2026-04-30 10:10 33.57060 135.35582 2265 ft 124 kts 94°
2026-04-30 10:10 33.57038 135.36628 2223 ft 127 kts 94°
2026-04-30 10:11 33.57018 135.37698 2179 ft 130 kts 94°
2026-04-30 10:11 33.56997 135.38782 2119 ft 130 kts 94°
2026-04-30 10:11 33.57027 135.39850 2116 ft 130 kts 81°
2026-04-30 10:11 33.57530 135.40765 2100 ft 133 kts 49°
2026-04-30 10:12 33.58371 135.41159 2090 ft 132 kts 15°
2026-04-30 10:12 33.59270 135.40911 2097 ft 136 kts 343°
2026-04-30 10:12 33.60130 135.40433 2042 ft 138 kts 346°
2026-04-30 10:12 33.60998 135.39978 1963 ft 135 kts 346°
2026-04-30 10:13 33.61851 135.39525 1874 ft 132 kts 346°
2026-04-30 10:13 33.62678 135.39079 1661 ft 128 kts 346°
2026-04-30 10:13 33.63420 135.38682 1412 ft 109 kts 349°
2026-04-30 10:13 33.64072 135.38334 1113 ft 99 kts 346°
2026-04-30 10:14 33.64658 135.37953 791 ft 96 kts 330°
2026-04-30 10:14 33.65155 135.37490 493 ft 92 kts 324°
2026-04-30 10:14 33.65994 135.36685 302 ft 37 kts 323°
2026-04-30 10:15 33.66143 135.36538 302 ft 23 kts 319°
2026-04-30 10:15 33.66259 135.36425 302 ft 24 kts 320°
2026-04-30 10:15 33.66387 135.36294 301 ft 15 kts 300°
2026-04-30 10:15 33.66361 135.36216 307 ft 10 kts 229°
2026-04-30 10:16 33.66319 135.36167 312 ft 10 kts 195°
2026-04-30 10:16 33.66292 135.36173 312 ft 8 kts 160°
2026-04-30 10:16 33.66261 135.36167 313 ft 3 kts 236°
2026-04-30 10:17 33.66246 135.36146 313 ft 0 kts 232°